Date String (YYYY-MM-DD hh:mm:ss) UTC,Instrument flags,Ambient pressure (hPa),Sample flow (lpm),Bypass flow (lpm),Sample temperature (°C),Ambient temperature (°C),ASC tube jacket temperature (°C),LED temperature (°C),Box temperature (°C),Sample RH (%),Span deviation,Mass concentration (μg/m³),Mass concentration (μg/m³),Mass concentration (μg/m³)
DateTimeUTC,F1_M11,P_M11,Q1_M11,Q2_M11,T1_M11,T2_M11,T3_M11,T4_M11,T5_M11,U1_M11,ZSPAN_M11,X0_M11,X2_M11,X1_M11
2022-05-24 22:00:00,,0824.3,5.00,0.00,28.4,27.5,00.0,37.4,30.3,16.5,-001.0,0016.90,0008.64,0007.91
2022-05-24 22:01:00,,0824.2,5.00,0.00,28.5,27.5,00.0,37.4,30.3,16.6,-001.3,0016.23,0008.62,0007.92
2022-05-24 22:02:00,,0824.3,5.01,0.00,28.5,27.5,00.0,37.4,30.3,16.6,-001.1,0016.16,0008.63,0007.93
2022-05-24 22:03:00,,0824.3,5.01,0.00,28.5,27.5,00.0,37.4,30.3,16.5,-000.9,0016.70,0008.66,0007.94
2022-05-24 22:04:00,,0824.2,5.00,0.00,28.5,27.6,00.0,37.4,30.4,16.4,0000.1,0015.84,0008.66,0007.94
2022-05-24 22:05:00,,0824.3,5.00,0.00,28.5,27.6,00.0,37.4,30.4,16.5,0000.0,0015.02,0008.62,0007.94
2022-05-24 22:06:00,,0824.3,5.00,0.00,28.5,27.6,00.0,37.4,30.4,16.5,-000.1,0014.50,0008.59,0007.94
2022-05-24 22:07:00,,0824.3,4.99,0.00,28.5,27.6,00.0,37.4,30.4,16.6,-000.2,0014.54,0008.63,0007.92
2022-05-24 22:08:00,,0824.3,4.99,0.00,28.5,27.6,00.0,37.4,30.4,16.5,-000.4,0014.72,0008.65,0007.89
2022-05-24 22:09:00,,0824.3,5.02,0.00,28.5,27.6,00.0,37.4,30.4,16.7,-000.3,0015.21,0008.59,0007.84
2022-05-24 22:10:00,,0824.3,5.00,0.00,28.5,27.6,00.0,37.4,30.4,16.6,-000.2,0015.94,0008.58,0007.79
2022-05-24 22:11:00,,0824.3,4.99,0.00,28.5,27.6,00.0,37.4,30.4,16.4,-000.3,0015.61,0008.56,0007.76
2022-05-24 22:12:00,,0824.3,4.99,0.00,28.5,27.6,00.0,37.4,30.4,16.5,-000.1,0016.29,0008.52,0007.72
2022-05-24 22:13:00,,0824.3,5.00,0.00,28.5,27.6,00.0,37.4,30.4,16.5,-000.0,0016.04,0008.47,0007.69
2022-05-24 22:14:00,,0824.3,5.00,0.00,28.5,27.6,00.0,37.4,30.4,16.4,-000.0,0015.68,0008.44,0007.67
2022-05-24 22:15:00,,0824.3,5.00,0.00,28.5,27.6,00.0,37.4,30.4,16.2,-000.4,0016.01,0008.45,0007.67
2022-05-24 22:16:00,,0824.3,5.00,0.00,28.5,27.6,00.0,37.4,30.4,16.2,-000.6,0016.42,0008.51,0007.67
2022-05-24 22:17:00,,0824.3,5.00,0.00,28.5,27.6,00.0,37.4,30.4,16.7,-000.6,0016.39,0008.51,0007.67
2022-05-24 22:18:00,,0824.2,5.00,0.00,28.5,27.6,00.0,37.4,30.4,16.5,-000.0,0016.22,0008.46,0007.67
2022-05-24 22:19:00,,0824.2,5.01,0.00,28.6,27.6,00.0,37.5,30.4,16.6,0000.3,0016.25,0008.47,0007.68
2022-05-24 22:20:00,,0824.2,5.00,0.00,28.6,27.6,00.0,37.5,30.4,16.7,0000.2,0015.46,0008.47,0007.68
2022-05-24 22:21:00,,0824.2,5.00,0.00,28.6,27.6,00.0,37.5,30.4,16.4,0000.1,0014.41,0008.46,0007.70
2022-05-24 22:22:00,,0824.3,5.00,0.00,28.6,27.7,00.0,37.5,30.4,16.3,0000.3,0015.14,0008.50,0007.69
2022-05-24 22:23:00,,0824.2,5.00,0.00,28.6,27.6,00.0,37.5,30.4,16.3,0000.2,0014.64,0008.53,0007.68
2022-05-24 22:24:00,,0824.2,5.00,0.00,28.6,27.6,00.0,37.5,30.4,16.4,0000.1,0015.10,0008.50,0007.66
2022-05-24 22:25:00,,0824.2,5.00,0.00,28.6,27.6,00.0,37.5,30.4,16.8,-000.0,0014.64,0008.48,0007.65
2022-05-24 22:26:00,,0824.2,5.01,0.00,28.6,27.6,00.0,37.5,30.5,16.6,0000.2,0014.23,0008.52,0007.64
2022-05-24 22:27:00,,0824.2,5.01,0.00,28.6,27.7,00.0,37.5,30.5,16.9,0000.0,0013.84,0008.50,0007.64
2022-05-24 22:28:00,,0824.2,4.99,0.00,28.6,27.7,00.0,37.5,30.5,16.6,0000.2,0013.93,0008.51,0007.63
2022-05-24 22:29:00,,0824.2,5.01,0.00,28.6,27.7,00.0,37.5,30.5,16.7,0000.0,0014.65,0008.53,0007.64
2022-05-24 22:30:00,,0824.2,4.99,0.00,28.6,27.7,00.0,37.5,30.5,16.4,-000.1,0014.87,0008.51,0007.63
2022-05-24 22:31:00,,0824.2,5.00,0.00,28.6,27.7,00.0,37.5,30.5,16.3,0000.2,0016.01,0008.53,0007.63
2022-05-24 22:32:00,,0824.2,4.99,0.00,28.6,27.7,00.0,37.5,30.5,16.3,-000.2,0016.13,0008.59,0007.62
2022-05-24 22:33:00,,0824.2,5.01,0.00,28.6,27.7,00.0,37.5,30.5,16.3,-000.5,0015.83,0008.59,0007.62
2022-05-24 22:34:00,,0824.2,4.99,0.00,28.6,27.7,00.0,37.5,30.5,16.6,-000.6,0016.58,0008.60,0007.63
2022-05-24 22:35:00,,0824.2,5.00,0.00,28.6,27.7,00.0,37.5,30.5,16.7,-000.7,0016.01,0008.63,0007.63
2022-05-24 22:36:00,,0824.2,5.00,0.00,28.7,27.7,00.0,37.5,30.5,16.4,-000.6,0016.67,0008.67,0007.64
2022-05-24 22:37:00,,0824.2,5.00,0.00,28.7,27.7,00.0,37.6,30.5,16.8,-000.8,0017.15,0008.61,0007.63
2022-05-24 22:38:00,,0824.2,4.99,0.00,28.7,27.8,00.0,37.6,30.5,16.7,-000.4,0017.55,0008.62,0007.63
2022-05-24 22:39:00,,0824.2,5.00,0.00,28.7,27.8,00.0,37.6,30.5,16.8,-000.4,0018.54,0008.63,0007.63
2022-05-24 22:40:00,,0824.3,5.00,0.00,28.7,27.8,00.0,37.6,30.5,16.4,-000.5,0018.37,0008.60,0007.62
2022-05-24 22:41:00,,0824.3,5.00,0.00,28.7,27.8,00.0,37.6,30.5,16.3,-000.3,0018.75,0008.59,0007.64
2022-05-24 22:42:00,,0824.3,5.00,0.00,28.7,27.7,00.0,37.6,30.5,16.2,0000.2,0017.68,0008.58,0007.66
2022-05-24 22:43:00,,0824.3,5.01,0.00,28.7,27.7,00.0,37.6,30.5,16.2,0000.2,0017.50,0008.57,0007.68
2022-05-24 22:44:00,,0824.3,4.99,0.00,28.7,27.7,00.0,37.6,30.5,16.3,0000.2,0017.17,0008.57,0007.71
2022-05-24 22:45:00,,0824.3,4.99,0.00,28.7,27.7,00.0,37.6,30.5,16.3,0000.4,0016.28,0008.55,0007.74
2022-05-24 22:46:00,,0824.3,5.00,0.00,28.7,27.7,00.0,37.6,30.5,16.3,0000.5,0016.98,0008.58,0007.75
2022-05-24 22:47:00,,0824.3,5.00,0.00,28.7,27.7,00.0,37.6,30.5,16.3,0000.5,0016.78,0008.58,0007.78
2022-05-24 22:48:00,,0824.3,5.00,0.00,28.7,27.7,00.0,37.6,30.5,16.2,0000.3,0016.54,0008.63,0007.83
2022-05-24 22:49:00,,0824.3,4.99,0.00,28.7,27.7,00.0,37.6,30.5,16.4,0000.1,0016.69,0008.65,0007.86
2022-05-24 22:50:00,,0824.3,5.00,0.00,28.7,27.7,00.0,37.6,30.5,16.2,-000.0,0016.04,0008.70,0007.89
2022-05-24 22:51:00,,0824.3,5.00,0.00,28.7,27.7,00.0,37.6,30.5,16.2,-000.5,0015.58,0008.75,0007.92
2022-05-24 22:52:00,,0824.3,5.01,0.00,28.7,27.8,00.0,37.6,30.6,16.5,-000.9,0015.20,0008.77,0007.93
2022-05-24 22:53:00,,0824.3,4.99,0.00,28.7,27.8,00.0,37.6,30.6,16.5,-001.3,0015.83,0008.81,0007.93
2022-05-24 22:54:00,,0824.3,5.00,0.00,28.7,27.8,00.0,37.6,30.6,16.2,-001.5,0015.89,0008.79,0007.93
2022-05-24 22:55:00,,0824.3,5.00,0.00,28.7,27.8,00.0,37.6,30.6,16.8,-001.6,0016.15,0008.78,0007.93
2022-05-24 22:56:00,,0824.3,5.00,0.00,28.7,27.8,00.0,37.6,30.6,16.8,-001.7,0016.64,0008.79,0007.93
2022-05-24 22:57:00,,0824.3,5.00,0.00,28.7,27.8,00.0,37.6,30.6,16.4,-001.6,0016.72,0008.80,0007.94
2022-05-24 22:58:00,,0824.3,5.00,0.00,28.7,27.8,00.0,37.6,30.6,16.2,-001.6,0016.68,0008.81,0007.93
2022-05-24 22:59:00,,0824.3,4.99,0.00,28.7,27.8,00.0,37.6,30.6,16.2,-001.3,0016.74,0008.80,0007.92
